Time,TemperatureF,DewpointF,PressureIn,WindDirection,WindDirectionDegrees,WindSpeedMPH,WindSpeedGustMPH,Humidity,HourlyPrecipIn,Conditions,Clouds,dailyrainin,SoftwareType,DateUTC
2013-10-07 00:02:00,53.7,47.0,29.99,NW,307,0.9,2.0,78,0.00,,,0.00,WeatherDisplay:10.37,2013-10-07 05:02:00,
2013-10-07 00:07:00,53.3,47.0,29.99,NW,318,1.4,3.5,79,0.00,,,0.00,WeatherDisplay:10.37,2013-10-07 05:07:00,
2013-10-07 00:12:00,53.3,47.0,29.99,WNW,283,1.3,3.5,79,0.00,,,0.00,WeatherDisplay:10.37,2013-10-07 05:12:00,
2013-10-07 00:17:00,53.1,46.8,29.99,WNW,283,1.0,3.5,79,0.00,,,0.00,WeatherDisplay:10.37,2013-10-07 05:17:00,
2013-10-07 00:22:00,53.0,47.0,29.99,West,277,0.4,2.3,80,0.00,,,0.00,WeatherDisplay:10.37,2013-10-07 05:22:00,
2013-10-07 00:27:00,52.7,46.7,29.99,West,275,1.0,2.3,80,0.00,,,0.00,WeatherDisplay:10.37,2013-10-07 05:27:00,
2013-10-07 00:32:00,52.5,46.8,29.99,WNW,290,0.9,2.3,81,0.00,,,0.00,WeatherDisplay:10.37,2013-10-07 05:32:00,
2013-10-07 00:37:00,52.2,46.9,29.99,WNW,285,1.0,2.3,82,0.00,,,0.00,WeatherDisplay:10.37,2013-10-07 05:37:00,
2013-10-07 00:42:00,52.0,46.7,29.99,WNW,297,1.3,2.3,82,0.00,,,0.00,WeatherDisplay:10.37,2013-10-07 05:42:00,
2013-10-07 00:47:00,51.9,46.6,29.99,WNW,294,2.1,3.5,82,0.00,,,0.00,WeatherDisplay:10.37,2013-10-07 05:47:00,
2013-10-07 00:53:00,51.9,46.6,29.99,WNW,290,1.6,2.3,82,0.00,,,0.00,WeatherDisplay:10.37,2013-10-07 05:53:00,
2013-10-07 00:58:00,51.9,46.6,30.00,WNW,302,2.7,3.5,82,0.00,,,0.00,WeatherDisplay:10.37,2013-10-07 05:58:00,
2013-10-07 01:03:00,51.6,46.6,29.99,NW,305,1.0,2.3,83,0.00,,,0.00,WeatherDisplay:10.37,2013-10-07 06:03:00,
2013-10-07 01:08:00,51.3,46.6,29.99,NW,307,1.3,2.3,84,0.00,,,0.00,WeatherDisplay:10.37,2013-10-07 06:08:00,
2013-10-07 01:13:00,51.4,46.4,30.00,WNW,303,2.2,3.5,83,0.00,,,0.00,WeatherDisplay:10.37,2013-10-07 06:13:00,
2013-10-07 01:18:00,51.5,46.5,30.00,WNW,300,2.5,3.5,83,0.00,,,0.00,WeatherDisplay:10.37,2013-10-07 06:18:00,
2013-10-07 01:23:00,51.4,46.4,30.00,WNW,301,1.9,3.5,83,0.00,,,0.00,WeatherDisplay:10.37,2013-10-07 06:23:00,
2013-10-07 01:28:00,51.2,46.5,30.00,WNW,288,0.8,1.1,84,0.00,,,0.00,WeatherDisplay:10.37,2013-10-07 06:28:00,
2013-10-07 01:33:00,50.8,46.5,29.99,NW,309,1.4,3.5,85,0.00,,,0.00,WeatherDisplay:10.37,2013-10-07 06:33:00,
2013-10-07 01:38:00,50.6,46.6,30.00,WNW,297,1.1,2.3,86,0.00,,,0.00,WeatherDisplay:10.37,2013-10-07 06:38:00,
2013-10-07 01:43:00,50.3,46.3,30.00,WNW,296,1.3,2.3,86,0.00,,,0.00,WeatherDisplay:10.37,2013-10-07 06:43:00,
2013-10-07 01:48:00,50.2,46.2,30.00,West,274,2.0,2.3,86,0.00,,,0.00,WeatherDisplay:10.37,2013-10-07 06:48:00,
2013-10-07 01:53:00,50.1,46.1,30.00,WNW,300,1.5,2.3,86,0.00,,,0.00,WeatherDisplay:10.37,2013-10-07 06:53:00,
2013-10-07 01:58:00,50.0,46.0,30.00,West,278,1.8,3.5,86,0.00,,,0.00,WeatherDisplay:10.37,2013-10-07 06:58:00,
2013-10-07 02:03:00,49.9,46.2,30.00,WNW,288,1.4,2.3,87,0.00,,,0.00,WeatherDisplay:10.37,2013-10-07 07:03:00,
2013-10-07 02:08:00,49.9,45.9,30.00,WNW,290,1.3,2.3,86,0.00,,,0.00,WeatherDisplay:10.37,2013-10-07 07:08:00,
2013-10-07 02:13:00,49.8,46.1,30.00,WNW,288,1.6,2.3,87,0.00,,,0.00,WeatherDisplay:10.37,2013-10-07 07:13:00,
2013-10-07 02:18:00,49.5,45.8,30.00,WNW,294,0.8,2.0,87,0.00,,,0.00,WeatherDisplay:10.37,2013-10-07 07:18:00,
2013-10-07 02:23:00,49.3,45.9,30.00,WNW,300,0.9,2.3,88,0.00,,,0.00,WeatherDisplay:10.37,2013-10-07 07:23:00,
2013-10-07 02:28:00,49.1,45.7,30.00,WNW,290,0.3,1.1,88,0.00,,,0.00,WeatherDisplay:10.37,2013-10-07 07:28:00,
2013-10-07 02:33:00,49.0,45.6,30.00,NW,304,2.0,4.6,88,0.00,,,0.00,WeatherDisplay:10.37,2013-10-07 07:33:00,
2013-10-07 02:38:00,48.9,45.5,29.99,NW,323,1.0,2.0,88,0.00,,,0.00,WeatherDisplay:10.37,2013-10-07 07:38:00,
2013-10-07 02:43:00,48.9,45.5,29.99,NW,325,1.9,3.5,88,0.00,,,0.00,WeatherDisplay:10.37,2013-10-07 07:43:00,
2013-10-07 02:48:00,49.0,45.6,29.99,NW,304,2.7,3.5,88,0.00,,,0.00,WeatherDisplay:10.37,2013-10-07 07:48:00,
2013-10-07 02:53:00,48.8,45.7,29.99,WNW,301,1.3,3.5,89,0.00,,,0.00,WeatherDisplay:10.37,2013-10-07 07:53:00,
2013-10-07 02:58:00,48.8,45.4,29.99,NW,314,1.9,3.0,88,0.00,,,0.00,WeatherDisplay:10.37,2013-10-07 07:58:00,
2013-10-07 03:03:00,48.7,45.6,29.99,WNW,294,2.0,3.5,89,0.00,,,0.00,WeatherDisplay:10.37,2013-10-07 08:03:00,
2013-10-07 03:08:00,48.8,45.4,29.99,West,281,1.2,3.5,88,0.00,,,0.00,WeatherDisplay:10.37,2013-10-07 08:08:00,
2013-10-07 03:13:00,48.6,45.5,29.99,WNW,303,2.4,3.5,89,0.00,,,0.00,WeatherDisplay:10.37,2013-10-07 08:13:00,
2013-10-07 03:18:00,48.5,45.4,29.99,West,269,2.3,3.5,89,0.00,,,0.00,WeatherDisplay:10.37,2013-10-07 08:18:00,
2013-10-07 03:23:00,48.5,45.4,29.99,WNW,297,1.3,2.3,89,0.00,,,0.00,WeatherDisplay:10.37,2013-10-07 08:23:00,
2013-10-07 03:28:00,48.4,45.3,29.99,WNW,303,1.9,3.5,89,0.00,,,0.00,WeatherDisplay:10.37,2013-10-07 08:28:00,
2013-10-07 03:33:00,48.4,45.3,29.99,WNW,302,2.2,4.6,89,0.00,,,0.00,WeatherDisplay:10.37,2013-10-07 08:33:00,
2013-10-07 03:38:00,48.3,45.2,29.99,WNW,293,1.7,2.3,89,0.00,,,0.00,WeatherDisplay:10.37,2013-10-07 08:38:00,
2013-10-07 03:43:00,48.1,45.0,29.99,NW,307,1.4,2.3,89,0.00,,,0.00,WeatherDisplay:10.37,2013-10-07 08:43:00,
2013-10-07 03:48:00,48.0,44.9,29.99,WNW,300,0.7,2.3,89,0.00,,,0.00,WeatherDisplay:10.37,2013-10-07 08:48:00,
2013-10-07 03:53:00,47.9,45.1,29.99,WNW,285,0.6,1.1,90,0.00,,,0.00,WeatherDisplay:10.37,2013-10-07 08:53:00,
2013-10-07 03:58:00,47.7,44.9,29.99,WNW,291,1.1,2.3,90,0.00,,,0.00,WeatherDisplay:10.37,2013-10-07 08:58:00,
2013-10-07 04:03:00,47.6,44.8,30.00,West,270,0.7,1.1,90,0.00,,,0.00,WeatherDisplay:10.37,2013-10-07 09:03:00,
2013-10-07 04:08:00,47.5,44.7,30.00,WNW,283,1.1,2.3,90,0.00,,,0.00,WeatherDisplay:10.37,2013-10-07 09:08:00,
2013-10-07 04:13:00,47.3,44.8,30.00,West,272,1.0,1.1,91,0.00,,,0.00,WeatherDisplay:10.37,2013-10-07 09:13:00,
2013-10-07 04:18:00,47.1,44.6,30.01,West,276,0.1,1.1,91,0.00,,,0.00,WeatherDisplay:10.37,2013-10-07 09:18:00,
2013-10-07 04:23:00,46.9,44.4,30.01,West,276,0.4,1.1,91,0.00,,,0.00,WeatherDisplay:10.37,2013-10-07 09:23:00,
2013-10-07 04:28:00,46.8,44.6,30.01,West,275,1.0,2.3,92,0.00,,,0.00,WeatherDisplay:10.37,2013-10-07 09:28:00,
2013-10-07 04:33:00,46.8,44.6,30.01,WNW,293,1.2,2.3,92,0.00,,,0.00,WeatherDisplay:10.37,2013-10-07 09:33:00,
2013-10-07 04:38:00,46.9,44.7,30.02,WNW,288,0.7,1.1,92,0.00,,,0.00,WeatherDisplay:10.37,2013-10-07 09:38:00,
2013-10-07 04:43:00,46.9,44.7,30.02,WNW,285,0.5,1.1,92,0.00,,,0.00,WeatherDisplay:10.37,2013-10-07 09:43:00,
2013-10-07 04:48:00,46.8,44.6,30.02,WNW,288,0.4,1.1,92,0.00,,,0.00,WeatherDisplay:10.37,2013-10-07 09:48:00,
2013-10-07 04:53:00,46.7,44.5,30.02,WNW,288,1.1,1.1,92,0.00,,,0.00,WeatherDisplay:10.37,2013-10-07 09:53:00,
2013-10-07 04:58:00,46.7,44.5,30.02,WNW,290,0.4,1.1,92,0.00,,,0.00,WeatherDisplay:10.37,2013-10-07 09:58:00,
2013-10-07 05:03:00,46.7,44.5,30.02,WNW,285,0.8,2.3,92,0.00,,,0.00,WeatherDisplay:10.37,2013-10-07 10:03:00,
2013-10-07 05:08:00,46.6,44.4,30.02,WNW,295,0.4,2.3,92,0.00,,,0.00,WeatherDisplay:10.37,2013-10-07 10:08:00,
2013-10-07 05:13:00,46.4,44.2,30.02,WNW,295,0.6,1.1,92,0.00,,,0.00,WeatherDisplay:10.37,2013-10-07 10:13:00,
2013-10-07 05:18:00,46.4,44.2,30.03,West,276,1.0,1.1,92,0.00,,,0.00,WeatherDisplay:10.37,2013-10-07 10:18:00,
2013-10-07 05:23:00,46.5,44.3,30.03,West,276,0.3,1.1,92,0.00,,,0.00,WeatherDisplay:10.37,2013-10-07 10:23:00,
2013-10-07 05:28:00,46.5,44.3,30.03,West,276,0.0,0.0,92,0.00,,,0.00,WeatherDisplay:10.37,2013-10-07 10:28:00,
2013-10-07 05:33:00,46.4,44.2,30.04,WNW,288,0.2,1.1,92,0.00,,,0.00,WeatherDisplay:10.37,2013-10-07 10:33:00,
2013-10-07 05:38:00,46.3,44.1,30.03,West,279,0.4,1.1,92,0.00,,,0.00,WeatherDisplay:10.37,2013-10-07 10:38:00,
2013-10-07 05:43:00,46.2,44.0,30.03,West,279,0.0,0.0,92,0.00,,,0.00,WeatherDisplay:10.37,2013-10-07 10:43:00,
2013-10-07 05:48:00,46.1,43.9,30.04,WNW,284,0.2,1.1,92,0.00,,,0.00,WeatherDisplay:10.37,2013-10-07 10:48:00,
2013-10-07 05:53:00,46.1,44.2,30.04,WNW,300,1.3,1.3,93,0.00,,,0.00,WeatherDisplay:10.37,2013-10-07 10:53:00,
2013-10-07 05:58:00,46.2,44.0,30.04,WNW,286,1.6,2.3,92,0.00,,,0.00,WeatherDisplay:10.37,2013-10-07 10:58:00,
2013-10-07 06:03:00,46.2,44.0,30.04,WNW,285,1.7,2.3,92,0.00,,,0.00,WeatherDisplay:10.37,2013-10-07 11:03:00,
2013-10-07 06:08:00,46.1,43.9,30.04,WNW,298,1.2,2.3,92,0.00,,,0.00,WeatherDisplay:10.37,2013-10-07 11:08:00,
2013-10-07 06:13:00,46.0,44.1,30.05,WNW,287,1.3,2.0,93,0.00,CLR,,0.00,WeatherDisplay:10.37,2013-10-07 11:13:00,
2013-10-07 06:18:00,46.0,44.1,30.05,WNW,287,1.3,2.3,93,0.00,CLR,,0.00,WeatherDisplay:10.37,2013-10-07 11:18:00,
2013-10-07 06:24:00,46.0,44.1,30.05,WNW,294,1.6,2.3,93,0.00,CLR,,0.00,WeatherDisplay:10.37,2013-10-07 11:24:00,
2013-10-07 06:29:00,45.9,44.0,30.05,WNW,286,1.1,2.3,93,0.00,CLR,,0.00,WeatherDisplay:10.37,2013-10-07 11:29:00,
2013-10-07 06:34:00,45.9,44.0,30.05,WNW,285,1.1,2.3,93,0.00,CLR,,0.00,WeatherDisplay:10.37,2013-10-07 11:34:00,
2013-10-07 06:39:00,45.9,43.7,30.05,WNW,285,1.5,2.3,92,0.00,CLR,,0.00,WeatherDisplay:10.37,2013-10-07 11:39:00,
2013-10-07 06:44:00,45.9,43.7,30.05,WNW,290,0.9,1.1,92,0.00,CLR,,0.00,WeatherDisplay:10.37,2013-10-07 11:44:00,
2013-10-07 06:49:00,45.8,43.6,30.05,WNW,291,1.1,2.3,92,0.00,CLR,,0.00,WeatherDisplay:10.37,2013-10-07 11:49:00,
2013-10-07 06:54:00,45.7,43.8,30.06,WNW,298,1.3,2.3,93,0.00,CLR,,0.00,WeatherDisplay:10.37,2013-10-07 11:54:00,
2013-10-07 06:59:00,45.9,43.7,30.06,WNW,287,1.2,2.3,92,0.00,CLR,,0.00,WeatherDisplay:10.37,2013-10-07 11:59:00,
2013-10-07 07:04:00,45.9,43.7,30.06,WNW,296,0.4,1.1,92,0.00,CLR,,0.00,WeatherDisplay:10.37,2013-10-07 12:04:00,
2013-10-07 07:09:00,45.8,43.6,30.06,WNW,294,0.6,1.1,92,0.00,CLR,,0.00,WeatherDisplay:10.37,2013-10-07 12:09:00,
2013-10-07 07:14:00,45.9,43.7,30.06,WNW,285,1.0,2.3,92,0.00,CLR,,0.00,WeatherDisplay:10.37,2013-10-07 12:14:00,
2013-10-07 07:19:00,45.9,43.7,30.06,WNW,290,1.2,2.3,92,0.00,CLR,,0.00,WeatherDisplay:10.37,2013-10-07 12:19:00,
2013-10-07 07:24:00,45.7,43.5,30.06,NW,305,1.2,2.3,92,0.00,CLR,,0.00,WeatherDisplay:10.37,2013-10-07 12:24:00,
2013-10-07 07:29:00,45.8,43.6,30.07,West,271,0.6,1.1,92,0.00,CLR,,0.00,WeatherDisplay:10.37,2013-10-07 12:29:00,
2013-10-07 07:34:00,45.8,43.6,30.07,West,279,1.2,2.3,92,0.00,CLR,,0.00,WeatherDisplay:10.37,2013-10-07 12:34:00,
2013-10-07 07:39:00,45.9,43.7,30.07,NW,305,0.9,1.1,92,0.00,CLR,,0.00,WeatherDisplay:10.37,2013-10-07 12:39:00,
2013-10-07 07:44:00,46.0,43.8,30.07,WNW,290,1.0,1.1,92,0.00,CLR,,0.00,WeatherDisplay:10.37,2013-10-07 12:44:00,
2013-10-07 07:49:00,46.0,43.8,30.07,WNW,283,1.8,3.5,92,0.00,CLR,,0.00,WeatherDisplay:10.37,2013-10-07 12:49:00,
2013-10-07 07:54:00,46.3,43.8,30.07,WNW,295,2.1,3.5,91,0.00,CLR,,0.00,WeatherDisplay:10.37,2013-10-07 12:54:00,
2013-10-07 07:59:00,46.7,44.2,30.07,WNW,285,0.6,2.3,91,0.00,CLR,,0.00,WeatherDisplay:10.37,2013-10-07 12:59:00,
2013-10-07 08:04:00,46.9,44.1,30.08,WNW,296,2.0,4.6,90,0.00,CLR,,0.00,WeatherDisplay:10.37,2013-10-07 13:04:00,
2013-10-07 08:09:00,47.1,44.3,30.08,WNW,292,1.8,2.3,90,0.00,CLR,,0.00,WeatherDisplay:10.37,2013-10-07 13:09:00,
2013-10-07 08:14:00,47.5,44.4,30.08,NW,307,1.8,3.5,89,0.00,CLR,,0.00,WeatherDisplay:10.37,2013-10-07 13:14:00,
2013-10-07 08:19:00,47.7,44.6,30.08,WNW,290,2.7,4.0,89,0.00,CLR,,0.00,WeatherDisplay:10.37,2013-10-07 13:19:00,
2013-10-07 08:24:00,48.2,44.8,30.08,WNW,300,2.0,3.5,88,0.00,CLR,,0.00,WeatherDisplay:10.37,2013-10-07 13:24:00,
2013-10-07 08:29:00,48.4,44.7,30.09,NW,307,2.3,3.5,87,0.00,CLR,,0.00,WeatherDisplay:10.37,2013-10-07 13:29:00,
2013-10-07 08:34:00,48.8,45.1,30.09,NW,313,2.4,3.5,87,0.00,CLR,,0.00,WeatherDisplay:10.37,2013-10-07 13:34:00,
2013-10-07 08:39:00,49.2,44.9,30.09,WNW,302,2.2,3.5,85,0.00,CLR,,0.00,WeatherDisplay:10.37,2013-10-07 13:39:00,
2013-10-07 08:44:00,49.6,45.0,30.09,WNW,299,3.5,4.6,84,0.00,CLR,,0.00,WeatherDisplay:10.37,2013-10-07 13:44:00,
2013-10-07 08:49:00,50.0,45.4,30.09,WNW,287,2.7,3.5,84,0.00,CLR,,0.00,WeatherDisplay:10.37,2013-10-07 13:49:00,
2013-10-07 08:54:00,50.4,45.1,30.09,NNW,336,4.9,8.1,82,0.00,CLR,,0.00,WeatherDisplay:10.37,2013-10-07 13:54:00,
2013-10-07 08:59:00,50.8,45.5,30.09,West,280,3.2,4.0,82,0.00,CLR,,0.00,WeatherDisplay:10.37,2013-10-07 13:59:00,
2013-10-07 09:04:00,51.2,45.6,30.10,WNW,302,2.6,3.5,81,0.00,CLR,,0.00,WeatherDisplay:10.37,2013-10-07 14:04:00,
2013-10-07 09:09:00,51.6,45.6,30.10,NNW,330,2.8,4.6,80,0.00,CLR,,0.00,WeatherDisplay:10.37,2013-10-07 14:09:00,
2013-10-07 09:14:00,52.1,46.1,30.10,WNW,287,3.2,5.0,80,0.00,CLR,,0.00,WeatherDisplay:10.37,2013-10-07 14:14:00,
2013-10-07 09:19:00,52.5,46.2,30.10,NW,307,3.6,5.0,79,0.00,CLR,,0.00,WeatherDisplay:10.37,2013-10-07 14:19:00,
2013-10-07 09:24:00,52.9,46.2,30.10,WSW,249,1.4,4.6,78,0.00,CLR,,0.00,WeatherDisplay:10.37,2013-10-07 14:24:00,
2013-10-07 09:29:00,53.3,46.3,30.10,West,263,3.3,4.6,77,0.00,CLR,,0.00,WeatherDisplay:10.37,2013-10-07 14:29:00,
2013-10-07 09:34:00,53.7,46.7,30.10,West,280,3.4,3.5,77,0.00,CLR,,0.00,WeatherDisplay:10.37,2013-10-07 14:34:00,
2013-10-07 09:39:00,54.1,46.7,30.10,WNW,286,2.0,3.5,76,0.00,CLR,,0.00,WeatherDisplay:10.37,2013-10-07 14:39:00,
2013-10-07 09:44:00,54.3,46.2,30.10,West,281,2.0,10.4,74,0.00,CLR,,0.00,WeatherDisplay:10.37,2013-10-07 14:44:00,
2013-10-07 09:49:00,54.7,46.2,30.10,NW,309,4.1,4.6,73,0.00,CLR,,0.00,WeatherDisplay:10.37,2013-10-07 14:49:00,
2013-10-07 09:54:00,55.1,46.6,30.11,NW,307,3.1,4.6,73,0.00,CLR,,0.00,WeatherDisplay:10.37,2013-10-07 14:54:00,
2013-10-07 09:59:00,55.3,45.7,30.11,NW,322,6.9,10.4,70,0.00,CLR,,0.00,WeatherDisplay:10.37,2013-10-07 14:59:00,
2013-10-07 10:04:00,55.6,46.7,30.11,WNW,286,3.7,6.9,72,0.00,CLR,,0.00,WeatherDisplay:10.37,2013-10-07 15:04:00,
2013-10-07 10:09:00,56.0,46.0,30.11,WNW,294,6.7,9.2,69,0.00,CLR,,0.00,WeatherDisplay:10.37,2013-10-07 15:09:00,
2013-10-07 10:14:00,56.4,47.1,30.11,West,267,1.8,5.8,71,0.00,CLR,,0.00,WeatherDisplay:10.37,2013-10-07 15:14:00,
2013-10-07 10:19:00,56.7,46.6,30.11,West,277,2.6,3.5,69,0.00,CLR,,0.00,WeatherDisplay:10.37,2013-10-07 15:19:00,
2013-10-07 10:24:00,57.0,46.5,30.12,WNW,303,2.4,8.1,68,0.00,CLR,,0.00,WeatherDisplay:10.37,2013-10-07 15:24:00,
2013-10-07 10:29:00,57.5,47.8,30.11,NNW,334,2.6,6.9,70,0.00,CLR,,0.00,WeatherDisplay:10.37,2013-10-07 15:29:00,
2013-10-07 10:34:00,57.4,46.1,30.11,WNW,302,5.5,9.2,66,0.00,CLR,,0.00,WeatherDisplay:10.37,2013-10-07 15:34:00,
2013-10-07 10:39:00,57.5,46.2,30.11,WNW,299,4.2,9.2,66,0.00,CLR,,0.00,WeatherDisplay:10.37,2013-10-07 15:39:00,
2013-10-07 10:44:00,57.8,46.9,30.11,NNE,30,1.7,3.5,67,0.00,CLR,,0.00,WeatherDisplay:10.37,2013-10-07 15:44:00,
2013-10-07 10:49:00,58.1,46.4,30.11,NW,320,6.9,9.2,65,0.00,CLR,,0.00,WeatherDisplay:10.37,2013-10-07 15:49:00,
2013-10-07 10:54:00,58.4,46.7,30.11,NW,321,5.3,6.9,65,0.00,CLR,,0.00,WeatherDisplay:10.37,2013-10-07 15:54:00,
2013-10-07 10:59:00,58.6,46.9,30.12,NNW,329,6.1,11.5,65,0.00,CLR,,0.00,WeatherDisplay:10.37,2013-10-07 15:59:00,
2013-10-07 11:04:00,58.5,46.8,30.12,NNE,18,4.7,11.5,65,0.00,CLR,,0.00,WeatherDisplay:10.37,2013-10-07 16:04:00,
2013-10-07 11:09:00,58.8,47.5,30.12,NW,307,4.4,6.9,66,0.00,CLR,,0.00,WeatherDisplay:10.37,2013-10-07 16:09:00,
2013-10-07 11:14:00,59.1,47.7,30.12,WNW,295,3.0,6.9,66,0.00,CLR,,0.00,WeatherDisplay:10.37,2013-10-07 16:14:00,
2013-10-07 11:19:00,59.5,47.7,30.12,NNE,30,3.2,6.9,65,0.00,CLR,,0.00,WeatherDisplay:10.37,2013-10-07 16:19:00,
2013-10-07 11:24:00,59.5,46.9,30.12,NE,37,6.2,8.0,63,0.00,CLR,,0.00,WeatherDisplay:10.37,2013-10-07 16:24:00,
2013-10-07 11:29:00,59.7,47.5,30.12,NE,39,3.5,5.8,64,0.00,CLR,,0.00,WeatherDisplay:10.37,2013-10-07 16:29:00,
2013-10-07 11:34:00,60.1,48.3,30.12,WSW,254,3.2,8.1,65,0.00,CLR,,0.00,WeatherDisplay:10.37,2013-10-07 16:34:00,
2013-10-07 11:39:00,60.2,47.1,30.12,NW,307,4.7,9.2,62,0.00,CLR,,0.00,WeatherDisplay:10.37,2013-10-07 16:39:00,
2013-10-07 11:44:00,60.7,46.7,30.12,West,277,5.4,10.4,60,0.00,CLR,,0.00,WeatherDisplay:10.37,2013-10-07 16:44:00,
2013-10-07 11:49:00,61.0,47.4,30.12,West,273,3.7,5.0,61,0.00,CLR,,0.00,WeatherDisplay:10.37,2013-10-07 16:49:00,
2013-10-07 11:54:00,61.0,47.0,30.12,NE,49,6.0,8.1,60,0.00,CLR,,0.00,WeatherDisplay:10.37,2013-10-07 16:54:00,
2013-10-07 12:00:00,61.4,47.8,30.12,North,7,2.2,4.6,61,0.00,CLR,,0.00,WeatherDisplay:10.37,2013-10-07 17:00:00,
2013-10-07 12:05:00,61.7,47.7,30.12,North,359,1.0,4.6,60,0.00,CLR,,0.00,WeatherDisplay:10.37,2013-10-07 17:05:00,
2013-10-07 12:10:00,62.3,48.2,30.11,WSW,238,1.4,4.6,60,0.00,CLR,,0.00,WeatherDisplay:10.37,2013-10-07 17:10:00,
2013-10-07 12:15:00,62.4,47.0,30.12,WNW,282,3.2,6.9,57,0.00,CLR,,0.00,WeatherDisplay:10.37,2013-10-07 17:15:00,
2013-10-07 12:20:00,62.7,48.6,30.12,NNE,22,2.4,5.0,60,0.00,CLR,,0.00,WeatherDisplay:10.37,2013-10-07 17:20:00,
2013-10-07 12:25:00,62.5,47.1,30.12,NE,36,4.2,10.0,57,0.00,CLR,,0.00,WeatherDisplay:10.37,2013-10-07 17:25:00,
2013-10-07 12:30:00,62.8,47.3,30.11,ESE,117,2.7,6.9,57,0.00,CLR,,0.00,WeatherDisplay:10.37,2013-10-07 17:30:00,
2013-10-07 12:35:00,63.2,47.2,30.11,WNW,290,5.1,9.2,56,0.00,CLR,,0.00,WeatherDisplay:10.37,2013-10-07 17:35:00,
2013-10-07 12:40:00,63.5,47.0,30.11,NNE,30,3.6,6.9,55,0.00,CLR,,0.00,WeatherDisplay:10.37,2013-10-07 17:40:00,
2013-10-07 12:45:00,63.5,47.0,30.11,North,359,4.3,6.9,55,0.00,CLR,,0.00,WeatherDisplay:10.37,2013-10-07 17:45:00,
2013-10-07 12:50:00,63.9,47.9,30.11,NNW,335,3.1,5.8,56,0.00,CLR,,0.00,WeatherDisplay:10.37,2013-10-07 17:50:00,
2013-10-07 12:55:00,63.9,46.4,30.11,ENE,75,1.3,3.5,53,0.00,CLR,,0.00,WeatherDisplay:10.37,2013-10-07 17:55:00,
2013-10-07 13:00:00,64.3,47.8,30.11,East,94,0.1,1.1,55,0.00,CLR,,0.00,WeatherDisplay:10.37,2013-10-07 18:00:00,
2013-10-07 13:05:00,64.7,47.2,30.11,North,351,4.5,6.9,53,0.00,CLR,,0.00,WeatherDisplay:10.37,2013-10-07 18:05:00,
2013-10-07 13:10:00,64.8,46.8,30.11,North,356,0.5,1.1,52,0.00,CLR,,0.00,WeatherDisplay:10.37,2013-10-07 18:10:00,
2013-10-07 13:15:00,65.1,48.0,30.11,NE,56,4.1,5.8,54,0.00,CLR,,0.00,WeatherDisplay:10.37,2013-10-07 18:15:00,
2013-10-07 13:20:00,65.0,47.4,30.11,NE,49,3.1,7.0,53,0.00,CLR,,0.00,WeatherDisplay:10.37,2013-10-07 18:20:00,
2013-10-07 13:25:00,64.8,46.2,30.11,NE,50,3.5,6.9,51,0.00,CLR,,0.00,WeatherDisplay:10.37,2013-10-07 18:25:00,
2013-10-07 13:30:00,65.4,48.8,30.11,NNE,23,0.3,3.0,55,0.00,CLR,,0.00,WeatherDisplay:10.37,2013-10-07 18:30:00,
2013-10-07 13:35:00,66.1,49.5,30.11,East,95,3.4,5.8,55,0.00,CLR,,0.00,WeatherDisplay:10.37,2013-10-07 18:35:00,
2013-10-07 13:40:00,65.8,48.7,30.10,NE,43,2.7,5.0,54,0.00,CLR,,0.00,WeatherDisplay:10.37,2013-10-07 18:40:00,
2013-10-07 13:45:00,65.7,46.5,30.10,SSE,153,0.7,2.3,50,0.00,CLR,,0.00,WeatherDisplay:10.37,2013-10-07 18:45:00,
2013-10-07 13:50:00,66.5,48.3,30.10,NNW,334,1.3,3.5,52,0.00,CLR,,0.00,WeatherDisplay:10.37,2013-10-07 18:50:00,
2013-10-07 13:55:00,66.9,49.2,30.10,NE,51,0.6,3.5,53,0.00,CLR,,0.00,WeatherDisplay:10.37,2013-10-07 18:55:00,
2013-10-07 14:00:00,67.2,50.0,30.10,North,11,0.8,3.0,54,0.00,CLR,,0.00,WeatherDisplay:10.37,2013-10-07 19:00:00,
2013-10-07 14:05:00,66.9,49.2,30.10,WNW,300,1.8,3.5,53,0.00,CLR,,0.00,WeatherDisplay:10.37,2013-10-07 19:05:00,
2013-10-07 14:10:00,66.9,47.6,30.10,East,91,1.3,4.0,50,0.00,CLR,,0.00,WeatherDisplay:10.37,2013-10-07 19:10:00,
2013-10-07 14:15:00,67.0,49.3,30.09,NNW,340,0.9,3.5,53,0.00,CLR,,0.00,WeatherDisplay:10.37,2013-10-07 19:15:00,
2013-10-07 14:20:00,67.3,47.5,30.09,ENE,77,0.1,0.0,49,0.00,CLR,,0.00,WeatherDisplay:10.37,2013-10-07 19:20:00,
2013-10-07 14:25:00,67.2,48.5,30.09,ESE,103,2.2,4.6,51,0.00,CLR,,0.00,WeatherDisplay:10.37,2013-10-07 19:25:00,
2013-10-07 14:30:00,67.5,48.2,30.09,ENE,59,1.8,3.5,50,0.00,CLR,,0.00,WeatherDisplay:10.37,2013-10-07 19:30:00,
2013-10-07 14:35:00,67.2,47.9,30.09,East,97,1.2,3.0,50,0.00,CLR,,0.00,WeatherDisplay:10.37,2013-10-07 19:35:00,
2013-10-07 14:40:00,67.2,47.9,30.09,ENE,78,0.0,1.1,50,0.00,CLR,,0.00,WeatherDisplay:10.37,2013-10-07 19:40:00,
2013-10-07 14:45:00,67.9,49.6,30.09,NNW,342,1.7,3.5,52,0.00,CLR,,0.00,WeatherDisplay:10.37,2013-10-07 19:45:00,
2013-10-07 14:50:00,68.3,49.5,30.09,ENE,77,4.4,6.9,51,0.00,CLR,,0.00,WeatherDisplay:10.37,2013-10-07 19:50:00,
2013-10-07 14:55:00,68.3,48.4,30.09,ESE,103,0.8,3.5,49,0.00,CLR,,0.00,WeatherDisplay:10.37,2013-10-07 19:55:00,
2013-10-07 15:00:00,68.4,48.5,30.09,North,349,2.3,3.5,49,0.00,CLR,,0.00,WeatherDisplay:10.37,2013-10-07 20:00:00,
2013-10-07 15:05:00,68.4,52.1,30.09,WSW,252,0.0,1.1,56,0.00,CLR,,0.00,WeatherDisplay:10.37,2013-10-07 20:05:00,
2013-10-07 15:10:00,68.4,49.0,30.09,NW,314,0.1,1.1,50,0.00,CLR,,0.00,WeatherDisplay:10.37,2013-10-07 20:10:00,
2013-10-07 15:15:00,68.7,48.2,30.09,ESE,112,1.5,2.3,48,0.00,CLR,,0.00,WeatherDisplay:10.37,2013-10-07 20:15:00,
2013-10-07 15:20:00,68.7,47.6,30.09,NW,307,1.1,3.5,47,0.00,CLR,,0.00,WeatherDisplay:10.37,2013-10-07 20:20:00,
2013-10-07 15:25:00,68.6,48.7,30.08,East,101,2.1,4.0,49,0.00,CLR,,0.00,WeatherDisplay:10.37,2013-10-07 20:25:00,
2013-10-07 15:30:00,68.7,49.8,30.08,NE,34,2.9,4.6,51,0.00,CLR,,0.00,WeatherDisplay:10.37,2013-10-07 20:30:00,
2013-10-07 15:35:00,68.4,48.5,30.08,North,357,1.2,3.5,49,0.00,CLR,,0.00,WeatherDisplay:10.37,2013-10-07 20:35:00,
2013-10-07 15:40:00,68.4,49.0,30.08,WNW,287,1.8,3.5,50,0.00,CLR,,0.00,WeatherDisplay:10.37,2013-10-07 20:40:00,
2013-10-07 15:45:00,68.7,48.2,30.08,ENE,75,1.9,3.5,48,0.00,CLR,,0.00,WeatherDisplay:10.37,2013-10-07 20:45:00,
2013-10-07 15:50:00,69.1,49.1,30.08,SE,126,0.0,1.1,49,0.00,CLR,,0.00,WeatherDisplay:10.37,2013-10-07 20:50:00,
2013-10-07 15:55:00,69.7,48.6,30.08,NE,51,2.6,3.5,47,0.00,CLR,,0.00,WeatherDisplay:10.37,2013-10-07 20:55:00,
2013-10-07 16:00:00,69.6,50.1,30.08,NE,46,0.5,2.0,50,0.00,CLR,,0.00,WeatherDisplay:10.37,2013-10-07 21:00:00,
2013-10-07 16:05:00,69.3,48.8,30.08,NNE,27,0.5,1.1,48,0.00,CLR,,0.00,WeatherDisplay:10.37,2013-10-07 21:05:00,
2013-10-07 16:10:00,69.0,48.5,30.08,ENE,65,1.5,2.3,48,0.00,CLR,,0.00,WeatherDisplay:10.37,2013-10-07 21:10:00,
2013-10-07 16:15:00,68.9,48.4,30.08,ENE,76,2.5,3.5,48,0.00,CLR,,0.00,WeatherDisplay:10.37,2013-10-07 21:15:00,
2013-10-07 16:20:00,68.6,48.7,30.08,SE,140,1.2,3.5,49,0.00,CLR,,0.00,WeatherDisplay:10.37,2013-10-07 21:20:00,
2013-10-07 16:25:00,69.3,49.9,30.08,NE,35,1.0,2.3,50,0.00,CLR,,0.00,WeatherDisplay:10.37,2013-10-07 21:25:00,
2013-10-07 16:30:00,69.4,50.5,30.07,NNE,15,0.4,2.3,51,0.00,CLR,,0.00,WeatherDisplay:10.37,2013-10-07 21:30:00,
2013-10-07 16:35:00,70.0,49.4,30.07,NNE,29,0.2,1.1,48,0.00,CLR,,0.00,WeatherDisplay:10.37,2013-10-07 21:35:00,
2013-10-07 16:40:00,70.0,48.8,30.07,NNW,333,2.0,4.6,47,0.00,CLR,,0.00,WeatherDisplay:10.37,2013-10-07 21:40:00,
2013-10-07 16:45:00,69.5,48.9,30.07,NNE,27,1.3,3.5,48,0.00,CLR,,0.00,WeatherDisplay:10.37,2013-10-07 21:45:00,
2013-10-07 16:50:00,69.0,49.0,30.07,ESE,105,0.7,2.3,49,0.00,CLR,,0.00,WeatherDisplay:10.37,2013-10-07 21:50:00,
2013-10-07 16:55:00,69.0,49.6,30.07,North,356,0.2,1.1,50,0.00,CLR,,0.00,WeatherDisplay:10.37,2013-10-07 21:55:00,
2013-10-07 17:01:00,68.9,50.5,30.07,West,280,0.0,1.1,52,0.00,CLR,,0.00,WeatherDisplay:10.37,2013-10-07 22:01:00,
2013-10-07 17:06:00,69.0,49.6,30.07,WNW,282,0.2,1.1,50,0.00,CLR,,0.00,WeatherDisplay:10.37,2013-10-07 22:06:00,
2013-10-07 17:11:00,69.1,49.7,30.07,NNW,345,0.0,1.1,50,0.00,CLR,,0.00,WeatherDisplay:10.37,2013-10-07 22:11:00,
2013-10-07 17:16:00,68.7,49.3,30.07,NE,55,1.0,3.5,50,0.00,CLR,,0.00,WeatherDisplay:10.37,2013-10-07 22:16:00,
2013-10-07 17:21:00,68.5,49.7,30.07,NNE,20,0.6,1.1,51,0.00,CLR,,0.00,WeatherDisplay:10.37,2013-10-07 22:21:00,
2013-10-07 17:26:00,68.6,51.3,30.07,NNE,12,0.0,0.0,54,0.00,CLR,,0.00,WeatherDisplay:10.37,2013-10-07 22:26:00,
2013-10-07 17:31:00,68.6,49.2,30.07,NNE,25,0.4,1.1,50,0.00,CLR,,0.00,WeatherDisplay:10.37,2013-10-07 22:31:00,
2013-10-07 17:36:00,68.8,51.0,30.07,NW,304,0.0,0.0,53,0.00,CLR,,0.00,WeatherDisplay:10.37,2013-10-07 22:36:00,
2013-10-07 17:41:00,69.2,49.8,30.07,NNW,345,0.0,0.0,50,0.00,CLR,,0.00,WeatherDisplay:10.37,2013-10-07 22:41:00,
2013-10-07 17:46:00,69.2,50.8,30.07,NNW,343,0.0,0.0,52,0.00,CLR,,0.00,WeatherDisplay:10.37,2013-10-07 22:46:00,
2013-10-07 17:51:00,68.7,49.3,30.08,ENE,60,0.0,1.1,50,0.00,CLR,,0.00,WeatherDisplay:10.37,2013-10-07 22:51:00,
2013-10-07 17:56:00,68.4,49.0,30.08,North,4,0.0,0.0,50,0.00,CLR,,0.00,WeatherDisplay:10.37,2013-10-07 22:56:00,
2013-10-07 18:01:00,68.4,50.6,30.08,North,4,0.0,0.0,53,0.00,CLR,,0.00,WeatherDisplay:10.37,2013-10-07 23:01:00,
2013-10-07 18:06:00,68.0,50.7,30.07,North,358,0.0,0.0,54,0.00,CLR,,0.00,WeatherDisplay:10.37,2013-10-07 23:06:00,
2013-10-07 18:11:00,67.2,50.5,30.08,North,358,0.0,0.0,55,0.00,CLR,,0.00,WeatherDisplay:10.37,2013-10-07 23:11:00,
2013-10-07 18:16:00,66.5,50.3,30.08,North,358,0.0,0.0,56,0.00,CLR,,0.00,WeatherDisplay:10.37,2013-10-07 23:16:00,
2013-10-07 18:21:00,65.9,50.7,30.08,North,358,0.0,0.0,58,0.00,CLR,,0.00,WeatherDisplay:10.37,2013-10-07 23:21:00,
2013-10-07 18:26:00,65.2,50.5,30.08,North,359,0.0,0.0,59,0.00,CLR,,0.00,WeatherDisplay:10.37,2013-10-07 23:26:00,
2013-10-07 18:31:00,64.7,50.0,30.08,North,359,0.0,0.0,59,0.00,CLR,,0.00,WeatherDisplay:10.37,2013-10-07 23:31:00,
2013-10-07 18:36:00,64.0,49.4,30.08,North,358,0.0,0.0,59,0.00,CLR,,0.00,WeatherDisplay:10.37,2013-10-07 23:36:00,
2013-10-07 18:41:00,63.6,49.9,30.08,North,359,0.0,0.0,61,0.00,CLR,,0.00,WeatherDisplay:10.37,2013-10-07 23:41:00,
2013-10-07 18:46:00,63.1,49.4,30.08,North,358,0.0,0.0,61,0.00,CLR,,0.00,WeatherDisplay:10.37,2013-10-07 23:46:00,
2013-10-07 18:51:00,62.4,50.1,30.08,North,358,0.0,0.0,64,0.00,CLR,,0.00,WeatherDisplay:10.37,2013-10-07 23:51:00,
2013-10-07 18:56:00,62.0,49.3,30.08,North,359,0.0,0.0,63,0.00,CLR,,0.00,WeatherDisplay:10.37,2013-10-07 23:56:00,
2013-10-07 19:01:00,61.8,49.5,30.08,North,359,0.0,0.0,64,0.00,,,0.00,WeatherDisplay:10.37,2013-10-08 00:01:00,
2013-10-07 19:06:00,61.6,49.3,30.08,North,358,0.0,0.0,64,0.00,,,0.00,WeatherDisplay:10.37,2013-10-08 00:06:00,
2013-10-07 19:11:00,61.2,48.9,30.08,North,359,0.0,0.0,64,0.00,,,0.00,WeatherDisplay:10.37,2013-10-08 00:11:00,
2013-10-07 19:16:00,60.8,48.5,30.08,North,358,0.0,0.0,64,0.00,,,0.00,WeatherDisplay:10.37,2013-10-08 00:16:00,
2013-10-07 19:21:00,60.6,48.8,30.08,North,359,0.0,0.0,65,0.00,,,0.00,WeatherDisplay:10.37,2013-10-08 00:21:00,
2013-10-07 19:26:00,60.4,48.6,30.08,North,359,0.0,0.0,65,0.00,,,0.00,WeatherDisplay:10.37,2013-10-08 00:26:00,
2013-10-07 19:31:00,60.0,48.6,30.09,North,358,0.0,0.0,66,0.00,,,0.00,WeatherDisplay:10.37,2013-10-08 00:31:00,
2013-10-07 19:36:00,59.4,49.2,30.09,North,358,0.0,0.0,69,0.00,,,0.00,WeatherDisplay:10.37,2013-10-08 00:36:00,
2013-10-07 19:41:00,58.8,49.0,30.09,North,358,0.0,0.0,70,0.00,,,0.00,WeatherDisplay:10.37,2013-10-08 00:41:00,
2013-10-07 19:46:00,58.4,49.0,30.09,North,358,0.0,0.0,71,0.00,,,0.00,WeatherDisplay:10.37,2013-10-08 00:46:00,
2013-10-07 19:51:00,58.0,49.8,30.09,North,358,0.0,0.0,74,0.00,,,0.00,WeatherDisplay:10.37,2013-10-08 00:51:00,
2013-10-07 19:56:00,57.4,49.9,30.09,North,359,0.0,0.0,76,0.00,,,0.00,WeatherDisplay:10.37,2013-10-08 00:56:00,
2013-10-07 20:01:00,56.8,49.3,30.09,North,359,0.0,0.0,76,0.00,,,0.00,WeatherDisplay:10.37,2013-10-08 01:01:00,
2013-10-07 20:06:00,56.2,49.1,30.09,North,358,0.0,0.0,77,0.00,,,0.00,WeatherDisplay:10.37,2013-10-08 01:06:00,
2013-10-07 20:11:00,55.7,48.9,30.09,North,359,0.0,0.0,78,0.00,,,0.00,WeatherDisplay:10.37,2013-10-08 01:11:00,
2013-10-07 20:16:00,55.5,48.4,30.10,North,359,0.0,0.0,77,0.00,,,0.00,WeatherDisplay:10.37,2013-10-08 01:16:00,
2013-10-07 20:21:00,55.7,49.3,30.10,North,358,0.0,0.0,79,0.00,,,0.00,WeatherDisplay:10.37,2013-10-08 01:21:00,
2013-10-07 20:26:00,55.7,48.9,30.10,North,359,0.0,0.0,78,0.00,,,0.00,WeatherDisplay:10.37,2013-10-08 01:26:00,
2013-10-07 20:31:00,55.5,49.4,30.10,North,358,0.0,0.0,80,0.00,,,0.00,WeatherDisplay:10.37,2013-10-08 01:31:00,
2013-10-07 20:36:00,55.3,49.6,30.10,North,359,0.0,0.0,81,0.00,,,0.00,WeatherDisplay:10.37,2013-10-08 01:36:00,
2013-10-07 20:41:00,55.1,49.4,30.10,North,359,0.0,0.0,81,0.00,,,0.00,WeatherDisplay:10.37,2013-10-08 01:41:00,
2013-10-07 20:46:00,55.0,49.3,30.11,North,359,0.0,0.0,81,0.00,,,0.00,WeatherDisplay:10.37,2013-10-08 01:46:00,
2013-10-07 20:51:00,55.2,49.5,30.11,North,358,0.0,0.0,81,0.00,,,0.00,WeatherDisplay:10.37,2013-10-08 01:51:00,
2013-10-07 20:56:00,55.7,48.9,30.11,North,358,0.0,0.0,78,0.00,,,0.00,WeatherDisplay:10.37,2013-10-08 01:56:00,
2013-10-07 21:01:00,56.3,48.8,30.11,North,358,0.0,0.0,76,0.00,,,0.00,WeatherDisplay:10.37,2013-10-08 02:01:00,
2013-10-07 21:06:00,56.3,48.8,30.11,North,359,0.0,0.0,76,0.00,,,0.00,WeatherDisplay:10.37,2013-10-08 02:06:00,
2013-10-07 21:11:00,55.8,48.7,30.11,North,359,0.0,0.0,77,0.00,,,0.00,WeatherDisplay:10.37,2013-10-08 02:11:00,
2013-10-07 21:16:00,55.8,48.7,30.11,North,359,0.0,0.0,77,0.00,,,0.00,WeatherDisplay:10.37,2013-10-08 02:16:00,
2013-10-07 21:21:00,55.9,48.4,30.12,North,359,0.0,0.0,76,0.00,,,0.00,WeatherDisplay:10.37,2013-10-08 02:21:00,
2013-10-07 21:26:00,55.8,48.7,30.11,North,358,0.0,0.0,77,0.00,,,0.00,WeatherDisplay:10.37,2013-10-08 02:26:00,
2013-10-07 21:31:00,55.4,49.3,30.12,North,359,0.0,0.0,80,0.00,,,0.00,WeatherDisplay:10.37,2013-10-08 02:31:00,
2013-10-07 21:36:00,54.7,49.0,30.12,North,359,0.0,0.0,81,0.00,,,0.00,WeatherDisplay:10.37,2013-10-08 02:36:00,
2013-10-07 21:41:00,54.2,48.8,30.12,North,359,0.0,0.0,82,0.00,,,0.00,WeatherDisplay:10.37,2013-10-08 02:41:00,
2013-10-07 21:46:00,53.9,48.9,30.12,North,358,0.0,0.0,83,0.00,,,0.00,WeatherDisplay:10.37,2013-10-08 02:46:00,
2013-10-07 21:51:00,53.6,48.6,30.12,North,359,0.0,0.0,83,0.00,,,0.00,WeatherDisplay:10.37,2013-10-08 02:51:00,
2013-10-07 21:57:00,53.8,48.8,30.12,North,358,0.0,0.0,83,0.00,,,0.00,WeatherDisplay:10.37,2013-10-08 02:57:00,
2013-10-07 22:02:00,53.6,48.6,30.12,North,358,0.0,0.0,83,0.00,,,0.00,WeatherDisplay:10.37,2013-10-08 03:02:00,
2013-10-07 22:07:00,53.3,48.6,30.12,North,359,0.0,0.0,84,0.00,,,0.00,WeatherDisplay:10.37,2013-10-08 03:07:00,
2013-10-07 22:12:00,53.6,49.2,30.12,North,358,0.0,0.0,85,0.00,,,0.00,WeatherDisplay:10.37,2013-10-08 03:12:00,
2013-10-07 22:17:00,53.4,48.7,30.12,North,358,0.0,0.0,84,0.00,,,0.00,WeatherDisplay:10.37,2013-10-08 03:17:00,
2013-10-07 22:22:00,52.9,48.5,30.12,North,358,0.0,0.0,85,0.00,,,0.00,WeatherDisplay:10.37,2013-10-08 03:22:00,
2013-10-07 22:27:00,52.7,49.2,30.12,North,358,0.0,0.0,88,0.00,,,0.00,WeatherDisplay:10.37,2013-10-08 03:27:00,
2013-10-07 22:32:00,52.7,49.2,30.12,North,359,0.0,0.0,88,0.00,,,0.00,WeatherDisplay:10.37,2013-10-08 03:32:00,
2013-10-07 22:37:00,53.2,49.4,30.12,North,359,0.0,0.0,87,0.00,,,0.00,WeatherDisplay:10.37,2013-10-08 03:37:00,
2013-10-07 22:42:00,53.2,49.4,30.12,North,358,0.0,0.0,87,0.00,,,0.00,WeatherDisplay:10.37,2013-10-08 03:42:00,
2013-10-07 22:47:00,53.8,49.7,30.12,North,359,0.0,0.0,86,0.00,,,0.00,WeatherDisplay:10.37,2013-10-08 03:47:00,
2013-10-07 22:52:00,54.6,49.9,30.12,North,359,0.0,0.0,84,0.00,,,0.00,WeatherDisplay:10.37,2013-10-08 03:52:00,
2013-10-07 22:57:00,54.8,49.4,30.12,North,359,0.0,0.0,82,0.00,,,0.00,WeatherDisplay:10.37,2013-10-08 03:57:00,
2013-10-07 23:01:00,54.6,49.5,30.12,North,359,0.0,0.0,83,0.00,,,0.00,WeatherDisplay:10.37,2013-10-08 04:01:00,
2013-10-07 23:02:00,54.6,49.5,30.12,North,359,0.0,0.0,83,0.00,,,0.00,WeatherDisplay:10.37,2013-10-08 04:02:00,
2013-10-07 23:07:00,54.5,49.4,30.12,North,358,0.0,0.0,83,0.00,,,0.00,WeatherDisplay:10.37,2013-10-08 04:07:00,
2013-10-07 23:12:00,54.5,49.4,30.12,North,359,0.0,0.0,83,0.00,,,0.00,WeatherDisplay:10.37,2013-10-08 04:12:00,
2013-10-07 23:17:00,54.2,49.1,30.12,North,359,0.0,0.0,83,0.00,,,0.00,WeatherDisplay:10.37,2013-10-08 04:17:00,
2013-10-07 23:22:00,54.1,49.1,30.12,North,359,0.0,0.0,83,0.00,,,0.00,WeatherDisplay:10.37,2013-10-08 04:22:00,
2013-10-07 23:27:00,54.5,49.1,30.12,North,358,0.0,0.0,82,0.00,,,0.00,WeatherDisplay:10.37,2013-10-08 04:27:00,
2013-10-07 23:32:00,54.3,49.2,30.12,North,358,0.0,0.0,83,0.00,,,0.00,WeatherDisplay:10.37,2013-10-08 04:32:00,
2013-10-07 23:37:00,53.6,48.6,30.12,North,358,0.0,0.0,83,0.00,,,0.00,WeatherDisplay:10.37,2013-10-08 04:37:00,
2013-10-07 23:42:00,53.2,48.5,30.12,North,358,0.0,0.0,84,0.00,,,0.00,WeatherDisplay:10.37,2013-10-08 04:42:00,
2013-10-07 23:47:00,54.3,49.2,30.12,NE,49,0.0,0.0,83,0.00,,,0.00,WeatherDisplay:10.37,2013-10-08 04:47:00,
2013-10-07 23:52:00,54.9,49.2,30.12,NE,51,0.0,0.0,81,0.00,,,0.00,WeatherDisplay:10.37,2013-10-08 04:52:00,
2013-10-07 23:57:00,54.7,49.0,30.12,NE,51,0.0,0.0,81,0.00,,,0.00,WeatherDisplay:10.37,2013-10-08 04:57:00,